Theta_e
326 327 327 320 323 327 328 329 327 327 329 329 329 327 325 324 321 320 319 314 312 310 309 308 308 307 307 307 307 306 304 302 300 299 297 296 296 296
323 327 328 327 326 327 327 327 327 323 329 329 330 329 325 325 324 322 320 319 317 316 315 313 311 310 309 309 308 308 309 308 306 303 302 300 297 296
324 325 326 327 327 328 327 327 321 322 326 328 329 329 327 326 325 325 324 323 321 320 320 319 318 317 316 314 314 313 311 311 311 310 307 304 302 299
327 325 324 324 324 325 323 322 320 320 322 325 329 329 327 328 328 325 325 325 325 325 324 323 322 322 321 320 320 317 314 313 313 314 313 310 306 303
328 328 327 325 325 323 320 322 322 322 321 324 328 329 329 328 329 329 328 326 326 326 326 325 325 325 324 323 323 322 320 318 317 315 316 314 312 307
328 328 328 324 325 321 319 318 319 324 324 321 327 328 327 327 327 329 329 329 328 327 327 327 326 326 325 325 325 324 324 323 322 319 318 318 315 311
320 322 327 326 322 322 316 318 321 324 326 327 327 323 325 327 325 326 328 328 329 329 329 329 328 328 328 328 328 328 327 325 323 322 320 319 318 314
321 322 326 326 326 324 325 325 323 324 325 326 326 321 321 325 325 322 323 327 329 327 329 329 329 329 329 329 328 328 328 327 324 322 321 318 317 316
321 319 323 325 326 326 326 327 325 325 324 325 327 324 325 324 325 320 325 328 327 329 329 328 327 328 328 328 327 327 327 327 326 324 322 319 316 315
320 317 318 326 327 326 326 327 326 326 327 326 326 324 321 321 326 324 324 327 326 326 326 327 327 328 328 327 326 327 326 326 326 325 323 321 317 314
321 319 316 318 321 319 322 325 327 327 327 327 326 325 324 320 323 326 328 325 324 325 324 325 325 325 326 326 326 326 325 326 324 324 323 321 318 314
322 319 321 319 321 323 321 325 325 326 326 323 321 324 321 321 320 323 325 327 327 327 326 324 323 323 323 323 323 322 322 325 324 324 322 321 318 314
322 323 324 325 324 324 322 318 318 322 325 326 325 326 325 324 323 325 325 328 327 327 328 326 325 325 324 323 322 322 323 323 323 323 322 319 317 315
316 320 323 324 325 325 324 324 321 322 324 325 327 327 326 327 327 327 327 327 327 327 328 327 327 326 326 324 322 321 324 323 324 323 320 318 316 312
310 313 318 321 323 324 325 324 323 323 324 323 326 324 323 326 325 323 327 327 326 326 327 328 327 327 327 326 324 323 324 323 324 322 321 318 315 314
306 309 312 315 319 321 324 324 325 323 324 325 325 324 326 324 324 324 326 326 325 326 327 327 328 328 327 327 325 325 324 324 323 322 320 317 315 310
300 303 307 310 313 317 319 320 320 323 322 322 324 325 324 325 326 326 325 325 326 325 326 325 326 325 326 326 325 324 324 324 323 321 318 315 313 309
296 296 296 298 301 302 307 312 314 317 316 316 317 323 324 324 322 324 323 325 323 325 324 324 324 324 324 323 324 322 323 322 321 318 315 311 310 306
294 293 293 293 293 294 296 298 303 307 309 315 315 316 319 321 322 322 322 323 324 323 323 323 324 324 323 322 322 322 322 321 319 316 312 310 307 303
290 291 292 292 293 293 293 293 296 299 302 305 309 309 315 317 319 321 322 322 323 321 321 322 322 323 323 323 323 322 321 320 318 314 310 306 302 299
288 289 290 291 292 292 292 293 293 294 295 297 301 303 308 311 315 316 320 320 320 319 320 322 322 323 322 319 316 316 318 319 314 313 311 305 299 297
286 286 287 289 290 291 292 292 293 293 293 293 295 297 300 304 308 309 311 315 317 317 319 320 320 319 317 318 317 317 316 315 308 304 303 301 299 296
284 285 286 287 288 289 290 291 291 292 292 292 292 294 295 297 301 303 304 307 309 311 313 312 313 311 312 313 309 313 312 311 305 298 296 296 296 297
Wind_Speed
34 38 47 38 36 36 30 22 20 17 16 14 14 19 24 24 25 24 25 24 23 23 22 21 20 19 19 17 15 15 14 13 14 14 14 15 16 17
39 39 45 47 47 42 40 35 28 25 19 9 10 11 19 21 23 23 24 25 24 23 23 22 21 20 19 18 17 16 15 15 15 15 15 16 18 19
44 44 44 46 42 41 40 37 33 31 28 25 14 11 11 16 20 20 26 26 25 25 24 23 23 22 21 19 17 17 18 17 17 17 17 17 19 20
49 46 49 48 47 45 44 40 38 36 36 34 27 19 23 19 15 19 17 25 27 25 25 24 23 23 22 21 21 22 21 20 19 19 19 18 20 21
49 49 47 48 48 45 46 43 39 39 38 38 42 33 20 21 24 20 19 21 21 24 25 26 24 25 25 24 24 23 22 23 22 21 21 21 21 23
43 49 53 51 48 51 48 45 45 43 45 48 44 44 31 25 25 24 25 23 22 24 25 24 26 26 27 25 25 25 26 25 23 23 23 23 23 24
43 43 51 54 56 53 55 51 50 50 47 46 46 43 36 27 30 31 29 24 26 27 28 28 27 28 28 27 26 25 26 27 27 25 24 24 25 26
26 38 51 52 48 53 51 47 48 52 46 42 43 47 43 37 32 28 29 26 23 27 31 32 31 30 28 29 25 23 24 27 28 29 27 28 27 26
18 23 40 49 48 48 39 45 42 41 43 45 43 52 41 36 31 31 27 26 26 24 25 24 28 30 29 28 25 24 24 24 27 29 30 30 30 29
26 21 20 38 43 35 31 42 47 46 43 45 48 44 50 37 34 33 32 30 30 32 32 28 23 30 29 29 28 27 26 26 28 29 30 31 31 31
31 31 21 28 21 16 34 45 42 45 49 42 43 41 57 52 43 32 26 23 26 32 34 30 27 32 29 30 30 30 28 28 27 28 29 30 31 31
38 34 34 34 33 31 28 33 41 41 41 43 45 42 45 52 49 46 39 32 28 25 31 33 33 33 32 31 31 34 32 29 28 29 28 28 29 31
24 37 35 34 37 39 35 30 30 29 43 44 45 47 52 58 61 56 52 45 38 34 34 36 37 36 34 26 25 26 24 27 28 28 28 27 29 30
21 24 36 38 40 37 42 42 42 30 37 40 48 49 46 50 54 50 50 53 51 45 37 41 41 38 40 34 32 34 32 30 28 27 27 27 25 28
17 22 27 35 39 43 42 40 42 44 41 41 49 42 43 47 49 43 42 43 44 44 50 44 40 41 39 41 37 36 34 31 29 29 29 27 28 30
11 13 18 25 32 35 33 40 41 45 45 49 52 46 46 41 46 51 44 44 48 48 50 53 51 49 47 44 41 38 36 35 28 29 31 29 29 31
17 11 11 12 17 22 30 30 32 36 36 39 44 48 38 41 49 48 44 41 43 47 47 51 53 52 48 45 42 42 37 37 33 33 32 33 33 33
24 26 25 21 17 15 14 16 21 26 27 25 29 42 40 46 45 50 42 45 45 50 48 48 51 51 49 47 45 43 41 40 35 35 33 33 34 35
26 27 28 28 28 28 23 19 17 20 24 31 30 30 29 43 42 43 43 47 52 49 50 47 48 51 53 53 49 47 45 42 37 36 35 34 35 36
23 24 25 26 26 27 28 28 23 20 20 23 28 35 34 26 41 47 49 50 52 51 50 48 50 50 54 56 55 51 48 43 41 39 37 34 33 30
23 23 21 22 23 22 25 25 28 26 22 22 20 25 30 34 34 41 51 49 48 54 53 53 51 46 48 50 45 46 46 45 40 40 40 39 37 33
21 21 23 22 21 22 21 24 23 26 28 26 22 21 18 24 32 30 37 47 47 51 49 48 48 50 50 54 55 52 44 44 43 39 35 40 38 33
21 22 22 21 22 22 21 21 21 21 24 24 29 25 22 19 18 26 32 36 39 42 45 47 43 45 49 52 51 53 48 46 46 42 35 34 27 22
Wind_Direction
219 218 211 209 220 222 225 221 234 241 226 237 220 231 223 225 231 230 225 223 221 222 223 224 226 228 232 235 237 240 246 252 257 261 264 266 271 274
226 225 220 222 224 228 229 243 242 243 249 253 221 232 223 222 230 229 228 230 224 225 225 225 227 230 233 238 242 245 248 253 257 262 265 269 271 272
230 228 229 227 227 233 234 235 241 242 241 244 251 220 228 226 229 229 230 230 228 227 227 227 230 233 234 238 244 247 249 251 256 260 264 268 271 273
237 236 233 234 233 238 242 239 240 242 247 253 240 232 239 240 238 231 231 234 232 232 233 232 233 238 239 240 245 247 250 253 260 262 265 268 270 271
241 240 240 235 234 234 241 236 240 244 243 247 251 240 238 231 233 234 231 231 229 233 231 234 235 240 241 243 248 252 255 258 262 265 268 267 271 271
233 240 241 235 233 232 237 243 246 252 255 255 258 238 232 230 229 233 235 233 233 236 239 240 242 246 246 247 250 250 253 258 262 262 264 268 267 269
266 262 229 240 237 237 239 238 240 246 247 246 240 228 228 220 229 233 239 243 241 238 243 244 245 248 249 251 253 255 257 257 260 261 265 267 267 267
268 268 250 245 248 241 244 243 243 239 239 229 232 222 226 229 239 232 238 226 228 243 241 245 249 249 252 253 256 260 262 258 258 260 262 261 263 267
238 264 259 258 261 249 253 254 242 242 242 243 237 226 223 222 235 238 231 234 238 235 243 245 242 250 253 254 256 256 260 259 257 258 258 258 259 262
240 256 272 247 247 241 250 246 249 245 244 242 240 244 219 218 237 245 257 260 253 242 247 247 241 254 253 255 257 258 259 262 257 256 258 258 259 258
239 250 250 260 254 280 255 250 254 247 246 252 242 243 231 226 238 240 237 234 231 241 241 240 240 250 249 251 258 260 261 259 256 253 257 257 258 256
234 240 243 246 252 248 253 240 248 250 247 244 238 237 228 224 243 250 241 238 233 233 240 238 239 247 248 255 257 263 261 252 252 252 249 253 252 252
244 236 241 241 248 247 241 252 261 255 248 248 249 244 237 239 242 241 243 241 240 239 249 253 243 248 246 248 249 254 258 251 251 246 248 245 246 243
263 248 239 238 244 247 242 247 255 253 249 250 250 246 255 244 241 244 248 249 250 250 245 249 249 246 251 244 248 255 251 250 255 251 246 246 243 235
287 268 253 243 239 241 247 245 249 251 252 248 243 252 245 253 242 256 256 247 250 253 246 239 244 246 249 250 251 250 251 251 252 248 252 246 240 239
321 285 271 261 252 248 242 246 254 246 252 255 246 245 240 245 236 239 245 242 244 247 244 245 243 246 249 248 251 247 247 243 249 248 249 242 240 235
10 339 290 279 264 260 257 252 257 256 254 257 239 245 246 240 237 245 248 248 252 248 246 241 238 240 245 245 245 242 242 242 245 247 238 237 234 232
30 33 29 21 4 346 314 276 267 257 252 248 255 252 249 243 252 243 249 242 257 252 251 244 240 239 239 237 238 237 240 238 237 238 233 233 231 228
32 32 29 26 23 21 10 351 318 294 272 257 254 251 251 251 248 244 250 250 250 249 250 249 243 238 235 234 236 236 234 235 232 227 228 230 231 229
24 23 24 25 24 19 18 14 353 334 318 291 268 262 245 247 245 249 250 250 247 252 250 247 243 239 237 240 240 238 232 232 232 226 221 219 224 229
14 13 13 14 14 16 17 13 18 11 349 335 307 285 261 248 244 245 248 255 252 251 247 247 247 246 245 238 235 236 229 228 226 228 220 211 212 215
4 0 358 3 360 7 9 12 5 8 8 355 335 325 297 267 250 244 244 243 248 247 249 249 250 245 237 236 235 234 225 218 215 211 216 218 207 207
357 355 352 350 354 352 353 1 359 355 1 1 4 344 332 309 280 261 255 247 249 247 245 244 247 244 241 237 225 229 217 207 204 196 195 207 211 216